Location: Unspecified
(50.7693°N, 0.0000°E)
Time: 04:31:00
(UTC+00:00)

Transit 2A - Pass Details

Date: 03 July 2019
Orbit: 596 x 962 km, 66.7° (Epoch: 16 August)

Event Time Altitude Azimuth Distance (km) Brightness Sun altitude
Rises 06:18:46 0° 321° (NW) 3,441 9.1 19.8°
Reaches altitude 10° 06:21:22 10° 319° (NW) 2,445 8.4 20.2°
Maximum altitude 06:26:54 64° 239° (WSW) 848 6.3 21.1°
Drops below altitude 10° 06:31:51 10° 158° (SSE) 2,185 8.6 21.9°
Sets 06:34:04 0° 155° (SSE) 3,047 9.3 22.2°
